Weather History for Kenai, AK

Change the Weather History Date:

Saturday, March 23, 2013

  Actual Average Record
Temperature  
Mean Temperature 28 °F -  
Max Temperature 33 °F 35 °F 45 °F (1965)
Min Temperature 24 °F 16 °F -18 °F (1962)
Degree Days  
Heating Degree Days 36    
Moisture  
Dew Point 20 °F    
Average Humidity 72    
Maximum Humidity 84    
Minimum Humidity 64    
Precipitation  
Precipitation 0.00 in - - ()
Sea Level Pressure  
Sea Level Pressure 29.83 in    
Wind  
Wind Speed 11 mph (South)    
Max Wind Speed 15 mph    
Max Gust Speed -    
Visibility 10 miles    
Events      
Averages and records for this station are not official NWS values.
T = Trace of Precipitation, MM = Missing Value Source: NWS Daily Summary

Daily Weather History Graph

Daily Weather History Graph

Search for Another Location

Airport:

Trip Planner

Search our weather history database for the weather conditions in past years. The results will help you decide how hot, cold, wet, or windy it might be!

Date:

Astronomy

Mar. 23, 2013 Rise Set
Actual Time 7:55 AM AKDT 8:28 PM AKDT
Civil Twilight 7:13 AM AKDT 9:11 PM AKDT
Nautical Twilight 6:21 AM AKDT 10:03 PM AKDT
Astronomical Twilight 5:24 AM AKDT 11:01 PM AKDT
Moon 4:20 PM AKDT (3/23) 6:28 AM AKDT (3/23)
Length of Visible Light 13h 58m
Length of Day
12h 32m
Waxing Gibbous, 86% of the Moon is Illuminated
Mar 23
Waxing Gibbous
Mar 27
Full
Apr 2
Last Quarter
Apr 10
New
Apr 18
First Quarter

Hourly Weather History & Observations

Time (AKDT) Temp. Windchill Dew Point Humidity Pressure Visibility Wind Dir Wind Speed Gust Speed Precip Events Conditions
12:53 AM 26.1 °F 16.2 °F 21.9 °F 84% 29.82 in 10.0 mi South 10.4 mph - N/A   Clear
1:53 AM 26.1 °F 18.4 °F 19.9 °F 78% 29.81 in 10.0 mi South 6.9 mph - N/A   Clear
2:53 AM 28.0 °F 16.5 °F 21.0 °F 75% 29.80 in 10.0 mi South 15.0 mph - N/A   Clear
3:53 AM 28.0 °F 18.1 °F 21.9 °F 78% 29.79 in 10.0 mi SSW 11.5 mph - N/A   Clear
4:53 AM 28.9 °F 18.2 °F 19.0 °F 67% 29.78 in 10.0 mi South 13.8 mph - N/A   Clear
5:53 AM 28.0 °F 18.1 °F 19.9 °F 72% 29.78 in 10.0 mi South 11.5 mph - N/A   Clear
6:53 AM 28.9 °F 18.2 °F 21.0 °F 72% 29.78 in 10.0 mi South 13.8 mph - N/A   Mostly Cloudy
7:53 AM 28.9 °F 19.8 °F 21.0 °F 72% 29.79 in 10.0 mi South 10.4 mph - N/A   Overcast
8:53 AM 28.9 °F 18.6 °F 21.0 °F 72% 29.80 in 10.0 mi South 12.7 mph - N/A   Overcast
9:53 AM 28.9 °F 19.2 °F 23.0 °F 78% 29.80 in 10.0 mi South 11.5 mph - N/A   Partly Cloudy
10:53 AM 28.9 °F 18.6 °F 24.1 °F 82% 29.82 in 10.0 mi South 12.7 mph - N/A   Mostly Cloudy
11:53 AM 30.0 °F 19.5 °F 21.9 °F 72% 29.83 in 10.0 mi SSW 13.8 mph - N/A   Mostly Cloudy
12:53 PM 30.9 °F 22.2 °F 21.9 °F 69% 29.84 in 10.0 mi SSW 10.4 mph - N/A   Partly Cloudy
1:53 PM 30.0 °F 21.1 °F 21.9 °F 72% 29.85 in 10.0 mi South 10.4 mph - N/A   Clear
2:53 PM 32.0 °F - 21.0 °F 64% 29.84 in 10.0 mi Calm Calm - N/A   Partly Cloudy
3:53 PM 30.9 °F 24.3 °F 21.0 °F 67% 29.84 in 10.0 mi North 6.9 mph - N/A   Clear
4:53 PM 28.9 °F 20.4 °F 19.9 °F 69% 29.85 in 10.0 mi North 9.2 mph - N/A   Scattered Clouds
5:53 PM 28.9 °F 21.1 °F 19.0 °F 67% 29.84 in 10.0 mi North 8.1 mph - N/A   Scattered Clouds
6:53 PM 27.0 °F 16.7 °F 18.0 °F 69% 29.84 in 10.0 mi North 11.5 mph - N/A   Overcast
7:53 PM 25.0 °F 14.2 °F 16.0 °F 69% 29.85 in 10.0 mi North 11.5 mph - N/A   Mostly Cloudy
8:53 PM 25.0 °F 17.1 °F 16.0 °F 69% 29.86 in 10.0 mi North 6.9 mph - N/A   Overcast
9:53 PM 25.0 °F 16.3 °F 16.0 °F 69% 29.86 in 10.0 mi NNE 8.1 mph - N/A   Overcast
10:53 PM 25.0 °F 16.3 °F 16.0 °F 69% 29.87 in 10.0 mi NNE 8.1 mph - N/A   Overcast
11:53 PM 24.1 °F 13.7 °F 15.1 °F 69% 29.86 in 10.0 mi NNE 10.4 mph - N/A   Overcast